CW9792 Weather Reports


time (UTC)temp
C
wind
direction
speed
KPH
gust
KPH
rain 1hr
cm
rain 24hr
cm
rain mn
cm
humidity
%
barometer
mb
20260508200001 21 186 0.0 0.0 0.00 0.00 0.00 29 1011.9
20260508195559 21 228 0.0 0.0 0.00 0.00 0.00 27 1012.0
20260508195059 21 202 0.0 0.0 0.00 0.00 0.00 30 1012.0
20260508194557 21 210 0.0 0.0 0.00 0.00 0.00 29 1012.0
20260508194055 21 197 0.0 0.0 0.00 0.00 0.00 29 1012.1
20260508193555 20 221 0.0 0.0 0.00 0.00 0.00 28 1012.2
20260508193057 20 244 0.0 0.0 0.00 0.00 0.00 27 1012.5
20260508192554 21 242 0.0 0.0 0.00 0.00 0.00 28 1012.5
20260508192054 21 209 0.0 0.0 0.00 0.00 0.00 27 1012.4
20260508191555 21 213 0.0 0.0 0.00 0.00 0.00 27 1012.6
20260508191052 20 196 0.0 0.0 0.00 0.00 0.00 28 1012.7
20260508190552 20 172 0.0 0.0 0.00 0.00 0.00 26 1012.8
20260508185552 20 239 0.0 0.0 0.00 0.00 0.00 28 1013.1
20260508185053 20 254 0.0 0.0 0.00 0.00 0.00 27 1013.0
20260508184551 21 250 0.0 0.0 0.00 0.00 0.00 28 1013.0
20260508184054 20 232 0.0 0.0 0.00 0.00 0.00 26 1013.0
20260508183550 20 254 0.0 0.0 0.00 0.00 0.00 26 1013.2
20260508183053 20 228 0.0 0.0 0.00 0.00 0.00 27 1013.0
20260508182549 20 223 0.0 0.0 0.00 0.00 0.00 25 1013.0
20260508182049 20 201 0.0 0.0 0.00 0.00 0.00 28 1013.0
20260508181609 20 244 0.0 11.3 0.00 0.00 0.00 27 1012.9
20260508181049 20 173 6.4 25.7 0.00 0.00 0.00 25 1012.9
20260508180549 20 161 1.6 25.7 0.00 0.00 0.00 29 1012.8
20260508180107 20 167 0.0 4.8 0.00 0.00 0.00 28 1012.8
20260508175548 20 205 0.0 0.0 0.00 0.00 0.00 27 1013.0
20260508175047 20 217 0.0 0.0 0.00 0.00 0.00 28 1013.1
20260508174546 20 204 0.0 0.0 0.00 0.00 0.00 27 1013.2
20260508174044 20 225 0.0 0.0 0.00 0.00 0.00 28 1013.4
20260508173544 20 191 0.0 1.6 0.00 0.00 0.00 27 1013.6
20260508173047 20 165 0.0 12.9 0.00 0.00 0.00 28 1013.6
20260508172541 19 243 4.8 24.1 0.00 0.00 0.00 28 1013.9
20260508172041 20 204 9.7 20.9 0.00 0.00 0.00 27 1013.9
20260508171541 20 178 0.0 1.6 0.00 0.00 0.00 29 1013.9
20260508171040 20 235 0.0 0.0 0.00 0.00 0.00 29 1014.0
20260508170540 20 203 0.0 0.0 0.00 0.00 0.00 30 1014.3
20260508170038 20 169 0.0 0.0 0.00 0.00 0.00 30 1014.3
20260508165536 19 216 0.0 0.0 0.00 0.00 0.00 29 1014.5
20260508165035 19 238 0.0 0.0 0.00 0.00 0.00 28 1014.6
20260508164540 19 225 0.0 0.0 0.00 0.00 0.00 28 1014.6
20260508164033 19 245 0.0 0.0 0.00 0.00 0.00 31 1014.8
20260508163532 19 228 0.0 0.0 0.00 0.00 0.00 28 1015.1
20260508163031 19 219 0.0 0.0 0.00 0.00 0.00 30 1015.1
20260508162532 19 246 0.0 0.0 0.00 0.00 0.00 32 1015.2
20260508162032 18 248 0.0 0.0 0.00 0.00 0.00 33 1015.2
20260508161535 18 240 0.0 0.0 0.00 0.00 0.00 29 1015.2
20260508161030 18 236 0.0 0.0 0.00 0.00 0.00 30 1015.3
20260508160528 18 212 0.0 0.0 0.00 0.00 0.00 30 1015.4
20260508160036 19 186 0.0 0.0 0.00 0.00 0.00 32 1015.6
20260508155526 18 229 0.0 0.0 0.00 0.00 0.00 31 1015.6
20260508155026 18 248 0.0 0.0 0.00 0.00 0.00 32 1015.7
20260508154526 18 229 0.0 1.6 0.00 0.00 0.00 33 1015.7
20260508154025 18 209 0.0 1.6 0.00 0.00 0.00 32 1015.7
20260508153526 18 236 0.0 0.0 0.00 0.00 0.00 31 1015.7
20260508153024 18 217 0.0 0.0 0.00 0.00 0.00 32 1015.8
20260508152523 18 235 0.0 0.0 0.00 0.00 0.00 31 1015.9
20260508152026 18 191 0.0 0.0 0.00 0.00 0.00 36 1016.0
20260508151525 18 234 0.0 0.0 0.00 0.00 0.00 30 1016.0
20260508151023 18 242 0.0 0.0 0.00 0.00 0.00 35 1016.0
20260508150525 17 236 0.0 0.0 0.00 0.00 0.00 32 1016.1
20260508150023 17 261 0.0 0.0 0.00 0.00 0.00 32 1016.1
20260508145523 17 271 0.0 0.0 0.00 0.00 0.00 34 1016.2
20260508145021 17 242 0.0 0.0 0.00 0.00 0.00 34 1016.2
20260508144519 17 225 0.0 0.0 0.00 0.00 0.00 34 1016.3
20260508144019 17 226 0.0 0.0 0.00 0.00 0.00 36 1016.3
20260508143518 17 216 0.0 0.0 0.00 0.00 0.00 37 1016.3
20260508143017 16 196 0.0 0.0 0.00 0.00 0.00 38 1016.3
20260508142516 16 228 0.0 0.0 0.00 0.00 0.00 36 1016.4
20260508142016 16 233 0.0 0.0 0.00 0.00 0.00 38 1016.4
20260508141515 16 229 0.0 0.0 0.00 0.00 0.00 39 1016.5
20260508141013 16 207 0.0 0.0 0.00 0.00 0.00 39 1016.4
20260508140512 16 241 0.0 0.0 0.00 0.00 0.00 39 1016.5
20260508140011 15 233 0.0 0.0 0.00 0.00 0.00 40 1016.5
20260508135511 15 242 0.0 0.0 0.00 0.00 0.00 40 1016.5
20260508135010 15 237 0.0 0.0 0.00 0.00 0.00 39 1016.4
20260508134512 15 229 0.0 0.0 0.00 0.00 0.00 39 1016.4
20260508134008 15 227 0.0 0.0 0.00 0.00 0.00 38 1016.4
20260508133508 15 232 0.0 0.0 0.00 0.00 0.00 40 1016.4
20260508133006 15 244 0.0 0.0 0.00 0.00 0.00 42 1016.5
20260508132507 15 244 0.0 0.0 0.00 0.00 0.00 43 1016.5
20260508132004 14 213 0.0 0.0 0.00 0.00 0.00 45 1016.5
20260508131503 13 169 0.0 0.0 0.00 0.00 0.00 47 1016.4
20260508131001 13 183 0.0 0.0 0.00 0.00 0.00 47 1016.4
20260508130604 13 192 0.0 0.0 0.00 0.00 0.00 46 1016.3
20260508130059 12 188 0.0 0.0 0.00 0.00 0.00 47 1016.2
20260508125557 12 194 0.0 0.0 0.00 0.00 0.00 48 1016.2
20260508125056 12 186 0.0 0.0 0.00 0.00 0.00 50 1016.2
20260508124555 11 187 0.0 0.0 0.00 0.00 0.00 50 1016.2
20260508124053 11 188 0.0 0.0 0.00 0.00 0.00 50 1016.2
20260508123551 11 181 0.0 0.0 0.00 0.00 0.00 51 1016.2
20260508123051 10 194 0.0 0.0 0.00 0.00 0.00 52 1016.2
20260508122548 10 193 0.0 0.0 0.00 0.00 0.00 52 1016.3
20260508122048 10 180 0.0 0.0 0.00 0.00 0.00 53 1016.4
20260508121550 9 180 0.0 0.0 0.00 0.00 0.00 53 1016.4
20260508121044 9 178 0.0 0.0 0.00 0.00 0.00 53 1016.4
20260508120543 8 181 0.0 0.0 0.00 0.00 0.00 53 1016.4
20260508120052 8 183 0.0 0.0 0.00 0.00 0.00 54 1016.4
20260508115542 8 182 0.0 0.0 0.00 0.00 0.00 54 1016.3
20260508115039 7 178 0.0 1.6 0.00 0.00 0.00 54 1016.3
20260508114538 7 186 0.0 0.0 0.00 0.00 0.00 54 1016.3
20260508114037 7 182 0.0 0.0 0.00 0.00 0.00 54 1016.3
20260508113536 7 184 0.0 0.0 0.00 0.00 0.00 54 1016.3
20260508113035 7 191 0.0 0.0 0.00 0.00 0.00 54 1016.2
20260508112535 7 192 0.0 0.0 0.00 0.00 0.00 54 1016.2
20260508112034 6 193 0.0 0.0 0.00 0.00 0.00 55 1016.1
20260508111550 6 192 0.0 0.0 0.00 0.00 0.00 55 1016.1
20260508111034 6 192 0.0 0.0 0.00 0.00 0.00 55 1016.1
20260508110536 6 188 0.0 0.0 0.00 0.00 0.00 55 1016.0
20260508110039 6 188 0.0 0.0 0.00 0.00 0.00 55 1015.9
20260508105536 6 188 0.0 0.0 0.00 0.00 0.00 55 1015.8
20260508105034 6 189 0.0 0.0 0.00 0.00 0.00 55 1015.7
20260508104533 6 190 0.0 0.0 0.00 0.00 0.00 56 1015.7
20260508104032 6 190 0.0 0.0 0.00 0.00 0.00 56 1015.7
20260508103532 6 180 0.0 0.0 0.00 0.00 0.00 56 1015.7
20260508103039 6 178 0.0 0.0 0.00 0.00 0.00 56 1015.7
20260508102531 6 179 0.0 0.0 0.00 0.00 0.00 55 1015.6
20260508102031 6 187 0.0 0.0 0.00 0.00 0.00 55 1015.6
20260508101540 6 184 0.0 0.0 0.00 0.00 0.00 55 1015.6
20260508101033 6 184 0.0 0.0 0.00 0.00 0.00 56 1015.6
20260508100531 6 181 0.0 0.0 0.00 0.00 0.00 57 1015.6
20260508100030 5 175 0.0 0.0 0.00 0.00 0.00 57 1015.6
20260508095531 5 172 0.0 0.0 0.00 0.00 0.00 57 1015.5
20260508095029 5 173 0.0 0.0 0.00 0.00 0.00 57 1015.6
20260508094529 5 181 0.0 0.0 0.00 0.00 0.00 57 1015.7
20260508094031 6 182 0.0 0.0 0.00 0.00 0.00 57 1015.7
20260508093529 6 181 0.0 0.0 0.00 0.00 0.00 57 1015.7
20260508093028 5 180 0.0 0.0 0.00 0.00 0.00 57 1015.8
20260508092527 6 178 0.0 0.0 0.00 0.00 0.00 57 1015.7
20260508092027 6 177 0.0 0.0 0.00 0.00 0.00 57 1015.7
20260508091527 6 184 0.0 0.0 0.00 0.00 0.00 56 1015.7
20260508091027 6 187 0.0 0.0 0.00 0.00 0.00 56 1015.7
20260508090527 6 196 0.0 0.0 0.00 0.00 0.00 56 1015.7
20260508090032 6 197 0.0 0.0 0.00 0.00 0.00 57 1015.8
20260508085526 5 189 0.0 0.0 0.00 0.00 0.00 58 1015.7
20260508085026 5 180 0.0 0.0 0.00 0.00 0.00 58 1015.8
20260508084525 5 181 0.0 0.0 0.00 0.00 0.00 58 1015.8
20260508084025 5 184 0.0 0.0 0.00 0.00 0.00 59 1015.8
20260508083524 5 188 0.0 0.0 0.00 0.00 0.00 60 1015.8
20260508083025 5 187 0.0 0.0 0.00 0.00 0.00 61 1015.8
20260508082524 5 178 0.0 0.0 0.00 0.00 0.00 61 1015.8
20260508082026 5 178 0.0 0.0 0.00 0.00 0.00 61 1015.8
20260508081525 5 189 0.0 0.0 0.00 0.00 0.00 61 1015.8
20260508081023 5 194 0.0 0.0 0.00 0.00 0.00 62 1015.8
20260508080526 5 202 0.0 0.0 0.00 0.00 0.00 62 1015.8
20260508080024 5 208 0.0 0.0 0.00 0.00 0.00 62 1015.8
20260508075524 5 208 0.0 0.0 0.00 0.00 0.00 62 1015.8
20260508075023 5 208 0.0 0.0 0.00 0.00 0.00 62 1015.8
20260508074524 5 208 0.0 0.0 0.00 0.00 0.00 62 1015.8
20260508074022 5 208 0.0 0.0 0.00 0.00 0.00 62 1015.7
20260508073522 5 208 0.0 0.0 0.00 0.00 0.00 62 1015.7
20260508073028 5 209 0.0 0.0 0.00 0.00 0.00 62 1015.7
20260508072521 5 209 0.0 0.0 0.00 0.00 0.00 62 1015.8
20260508072021 5 209 0.0 0.0 0.00 0.00 0.00 62 1015.8
20260508071527 5 209 0.0 0.0 0.00 0.00 0.00 62 1015.9
20260508071022 5 209 0.0 0.0 0.00 0.00 0.00 62 1015.8
20260508070520 5 213 0.0 0.0 0.00 0.00 0.00 62 1015.8
20260508070021 5 213 0.0 0.0 0.00 0.00 0.00 62 1015.8
20260508065522 5 213 0.0 0.0 0.00 0.00 0.00 62 1015.9
20260508065019 5 213 0.0 0.0 0.00 0.00 0.00 63 1015.9
20260508064532 5 212 0.0 0.0 0.00 0.00 0.00 62 1015.9
20260508064019 5 213 0.0 0.0 0.00 0.00 0.00 63 1016.0
20260508063517 5 212 0.0 0.0 0.00 0.00 0.00 63 1016.0
20260508063022 5 213 0.0 0.0 0.00 0.00 0.00 63 1016.1
20260508062516 5 213 0.0 0.0 0.00 0.00 0.00 62 1016.0
20260508062015 5 213 0.0 0.0 0.00 0.00 0.00 62 1016.1
20260508061518 5 213 0.0 0.0 0.00 0.00 0.00 62 1016.1
20260508061021 5 213 0.0 0.0 0.00 0.00 0.00 62 1016.1
20260508060513 5 213 0.0 0.0 0.00 0.00 0.00 62 1016.2
20260508060016 5 213 0.0 0.0 0.00 0.00 0.00 62 1016.2
20260508055513 5 213 0.0 0.0 0.00 0.00 0.00 62 1016.2
20260508055012 5 213 0.0 0.0 0.00 0.00 0.00 62 1016.3
20260508054515 5 213 0.0 0.0 0.00 0.00 0.00 62 1016.4
20260508054010 5 213 0.0 0.0 0.00 0.00 0.00 62 1016.4
20260508053511 5 213 0.0 0.0 0.00 0.00 0.00 62 1016.3
20260508053019 5 213 0.0 0.0 0.00 0.00 0.00 62 1016.4
20260508052510 5 213 0.0 0.0 0.00 0.00 0.00 62 1016.5
20260508052008 5 213 0.0 0.0 0.00 0.00 0.00 62 1016.5
20260508051509 6 213 0.0 0.0 0.00 0.00 0.00 62 1016.5
20260508051009 6 213 0.0 0.0 0.00 0.00 0.00 61 1016.6
20260508050510 6 213 0.0 0.0 0.00 0.00 0.00 61 1016.6
20260508050017 6 213 0.0 0.0 0.00 0.00 0.00 61 1016.6
20260508045509 6 213 0.0 0.0 0.00 0.00 0.00 62 1016.7
20260508045007 6 218 0.0 0.0 0.00 0.00 0.00 62 1016.7
20260508044505 6 219 0.0 0.0 0.00 0.00 0.00 62 1016.7
20260508044009 6 219 0.0 0.0 0.00 0.00 0.00 62 1016.6
20260508043504 6 219 0.0 0.0 0.00 0.00 0.00 62 1016.6
20260508043006 6 219 0.0 0.0 0.00 0.00 0.00 62 1016.5
20260508042503 6 219 0.0 0.0 0.00 0.00 0.00 62 1016.4
20260508042002 6 219 0.0 0.0 0.00 0.00 0.00 62 1016.5
20260508041501 6 219 0.0 0.0 0.00 0.00 0.00 61 1016.4
20260508041002 6 222 0.0 0.0 0.00 0.00 0.00 61 1016.4
20260508040600 6 222 0.0 0.0 0.00 0.00 0.00 61 1016.4
20260508040059 6 222 0.0 0.0 0.00 0.00 0.00 61 1016.4
20260508035559 6 222 0.0 0.0 0.00 0.00 0.00 60 1016.3
20260508035059 7 222 0.0 0.0 0.00 0.00 0.00 60 1016.4
20260508034604 7 222 0.0 0.0 0.00 0.00 0.00 60 1016.4
20260508034057 7 222 0.0 0.0 0.00 0.00 0.00 59 1016.4
20260508033557 7 222 0.0 0.0 0.00 0.00 0.00 59 1016.4
20260508033058 7 222 0.0 0.0 0.00 0.00 0.00 59 1016.4
20260508032558 7 222 0.0 0.0 0.00 0.00 0.00 58 1016.5
20260508032057 7 222 0.0 0.0 0.00 0.00 0.00 58 1016.4
20260508031558 7 222 0.0 0.0 0.00 0.00 0.00 58 1016.5
20260508031059 7 222 0.0 0.0 0.00 0.00 0.00 57 1016.5
20260508030557 7 222 0.0 0.0 0.00 0.00 0.00 56 1016.5
20260508030100 8 222 0.0 0.0 0.00 0.00 0.00 56 1016.5
20260508025556 8 232 0.0 0.0 0.00 0.00 0.00 55 1016.5
20260508025058 8 232 0.0 0.0 0.00 0.00 0.00 55 1016.4
20260508024556 8 232 0.0 0.0 0.00 0.00 0.00 55 1016.4
20260508024057 8 232 0.0 0.0 0.00 0.00 0.00 55 1016.4
20260508023555 8 238 0.0 0.0 0.00 0.00 0.00 54 1016.3
20260508023055 8 238 0.0 0.0 0.00 0.00 0.00 54 1016.3
20260508022555 8 238 0.0 0.0 0.00 0.00 0.00 52 1016.2
20260508022055 9 238 0.0 0.0 0.00 0.00 0.00 51 1016.2
20260508021556 9 246 0.0 0.0 0.00 0.00 0.00 50 1016.1
20260508021055 9 246 0.0 1.6 0.00 0.00 0.00 49 1016.1
20260508020557 10 264 0.0 1.6 0.00 0.00 0.00 50 1016.0
20260508020057 10 284 0.0 0.0 0.00 0.00 0.00 50 1015.9
20260508015554 10 286 0.0 0.0 0.00 0.00 0.00 47 1015.9
20260508015054 11 286 0.0 0.0 0.00 0.00 0.00 47 1015.8
20260508014556 11 286 0.0 0.0 0.00 0.00 0.00 44 1015.7
20260508014057 11 286 0.0 0.0 0.00 0.00 0.00 43 1015.7
20260508013553 11 286 0.0 0.0 0.00 0.00 0.00 42 1015.6
20260508013053 11 286 0.0 0.0 0.00 0.00 0.00 42 1015.6
20260508012553 11 286 0.0 0.0 0.00 0.00 0.00 42 1015.5
20260508012053 12 287 0.0 0.0 0.00 0.00 0.00 41 1015.4
20260508011554 12 287 0.0 0.0 0.00 0.00 0.00 40 1015.4
20260508011053 12 286 0.0 0.0 0.00 0.00 0.00 39 1015.3
20260508010654 12 287 0.0 0.0 0.00 0.00 0.00 38 1015.3
20260508010053 12 286 0.0 0.0 0.00 0.00 0.00 41 1015.1
20260508005552 12 295 0.0 0.0 0.00 0.00 0.00 40 1015.1
20260508005053 12 313 0.0 0.0 0.00 0.00 0.00 39 1015.1
20260508004552 13 313 0.0 0.0 0.00 0.00 0.00 33 1015.1
20260508004052 13 313 0.0 0.0 0.00 0.00 0.00 33 1015.1
20260508003551 13 313 0.0 0.0 0.00 0.00 0.00 33 1015.0
20260508003100 14 291 0.0 0.0 0.00 0.00 0.00 30 1015.0
20260508002551 14 292 0.0 0.0 0.00 0.00 0.00 31 1014.9
20260508002051 14 289 0.0 0.0 0.00 0.00 0.00 31 1014.8
20260508001557 15 289 0.0 0.0 0.00 0.00 0.00 29 1014.8
20260508001051 15 286 0.0 0.0 0.00 0.00 0.00 27 1014.7
20260508000553 15 294 0.0 0.0 0.00 0.00 0.00 29 1014.6
20260508000051 15 282 0.0 0.0 0.00 0.00 0.00 27 1014.7
20260507235553 15 291 0.0 0.0 0.00 0.00 0.00 29 1014.7
20260507235050 15 287 0.0 0.0 0.00 0.00 0.00 28 1014.7
20260507234549 15 290 0.0 0.0 0.00 0.00 0.00 28 1014.6
20260507234049 15 290 0.0 0.0 0.00 0.00 0.00 28 1014.6
20260507233549 15 296 0.0 0.0 0.00 0.00 0.00 26 1014.6
20260507233049 16 281 0.0 0.0 0.00 0.00 0.00 27 1014.6
20260507232549 16 288 0.0 0.0 0.00 0.00 0.00 27 1014.5
20260507232047 16 292 0.0 0.0 0.00 0.00 0.00 26 1014.6
20260507231548 16 263 0.0 0.0 0.00 0.00 0.00 25 1014.6
20260507231048 16 289 0.0 6.4 0.00 0.00 0.00 25 1014.7
20260507230548 16 241 0.0 6.4 0.00 0.00 0.00 25 1014.7
20260507230048 16 260 0.0 1.6 0.00 0.00 0.00 27 1014.7
20260507225549 16 316 0.0 0.0 0.00 0.00 0.00 24 1014.7
20260507225047 16 258 0.0 0.0 0.00 0.00 0.00 24 1014.8
20260507224602 16 286 0.0 0.0 0.00 0.00 0.00 25 1014.8
20260507224047 16 305 0.0 0.0 0.00 0.00 0.00 26 1014.8
20260507223547 16 293 0.0 0.0 0.00 0.00 0.00 23 1014.8
20260507223053 16 286 0.0 0.0 0.00 0.00 0.00 25 1014.9
20260507222549 16 355 0.0 0.0 0.00 0.00 0.00 22 1014.9
20260507222045 17 22 0.0 0.0 0.00 0.00 0.00 22 1014.9
20260507221545 17 326 0.0 0.0 0.00 0.00 0.00 22 1014.8
20260507221046 17 343 0.0 0.0 0.00 0.00 0.00 21 1014.8
20260507220546 17 336 0.0 1.6 0.00 0.00 0.00 23 1014.6
20260507220045 16 266 0.0 1.6 0.00 0.00 0.00 22 1014.6
20260507215549 16 302 0.0 0.0 0.00 0.00 0.00 24 1014.6
20260507215045 16 349 0.0 0.0 0.00 0.00 0.00 23 1014.6
20260507214547 16 15 0.0 0.0 0.00 0.00 0.00 23 1014.5
20260507214046 17 344 0.0 1.6 0.00 0.00 0.00 24 1014.7
20260507213543 16 343 0.0 1.6 0.00 0.00 0.00 23 1014.6
20260507213043 16 16 0.0 0.0 0.00 0.00 0.00 23 1014.7
20260507212542 17 355 0.0 0.0 0.00 0.00 0.00 23 1014.7
20260507212045 17 10 0.0 0.0 0.00 0.00 0.00 25 1014.7
20260507211554 16 14 0.0 0.0 0.00 0.00 0.00 23 1014.8
20260507211042 16 5 0.0 6.4 0.00 0.00 0.00 21 1014.8
20260507210542 17 343 0.0 6.4 0.00 0.00 0.00 22 1014.8
20260507210042 17 5 0.0 0.0 0.00 0.00 0.00 23 1014.8
20260507205541 16 313 0.0 0.0 0.00 0.00 0.00 22 1014.8
20260507205040 16 302 0.0 0.0 0.00 0.00 0.00 26 1014.8
20260507204540 16 355 0.0 0.0 0.00 0.00 0.00 23 1014.8
20260507204041 16 341 0.0 0.0 0.00 0.00 0.00 22 1014.7
20260507203539 16 5 0.0 0.0 0.00 0.00 0.00 24 1014.8
20260507203041 16 27 0.0 0.0 0.00 0.00 0.00 23 1014.8
20260507202538 16 9 0.0 0.0 0.00 0.00 0.00 24 1014.8
20260507202038 16 333 0.0 0.0 0.00 0.00 0.00 25 1014.8
20260507201538 16 5 0.0 0.0 0.00 0.00 0.00 25 1014.9
20260507201040 16 289 0.0 0.0 0.00 0.00 0.00 26 1014.9
20260507200537 16 349 0.0 0.0 0.00 0.00 0.00 22 1015.0